VCP71 LOWG-EGNX

Flight info

Callsign VCP71
Flight time 2h 9m
Altitude 36000
Route MILGO DCT SUBEN Q162 SPESA DCT BOMBI DCT ADKUV DCT ASDAK T880 BATTY L608 DENUT L610 HEMEL
Aircraft B738/M-SDE2E3FGHIRWXY/LB1

Departure

Time 2026-05-09 01:29
Airport Graz Airport (LOWG)

Arrival

Time 2026-05-09 03:38
Airport East Midlands Airport (EGNX)
Time Latitude Longitude Altitude Speed Heading
2026-05-09 01:10 46.99884 15.44256 1106 ft 0 kts 349°
2026-05-09 01:21 46.99876 15.44258 1106 ft 2 kts 349°
2026-05-09 01:22 46.99862 15.44262 1106 ft 2 kts 348°
2026-05-09 01:22 46.99847 15.44266 1106 ft 2 kts 349°
2026-05-09 01:22 46.99836 15.44270 1106 ft 0 kts 349°
2026-05-09 01:22 46.99824 15.44277 1106 ft 2 kts 309°
2026-05-09 01:23 46.99819 15.44296 1106 ft 1 kts 267°
2026-05-09 01:23 46.99820 15.44305 1106 ft 1 kts 255°
2026-05-09 01:23 46.99820 15.44309 1107 ft 0 kts 259°
2026-05-09 01:24 46.99817 15.44285 1106 ft 7 kts 259°
2026-05-09 01:25 46.99791 15.44198 1104 ft 9 kts 212°
2026-05-09 01:25 46.99728 15.44193 1104 ft 10 kts 169°
2026-05-09 01:25 46.99636 15.44218 1104 ft 17 kts 169°
2026-05-09 01:25 46.99508 15.44253 1104 ft 14 kts 169°
2026-05-09 01:26 46.99426 15.44229 1104 ft 12 kts 223°
2026-05-09 01:26 46.99346 15.44107 1101 ft 21 kts 226°
2026-05-09 01:26 46.99244 15.43951 1102 ft 19 kts 211°
2026-05-09 01:26 46.99099 15.43965 1101 ft 24 kts 168°
2026-05-09 01:27 46.98902 15.44020 1100 ft 33 kts 169°
2026-05-09 01:27 46.98648 15.44090 1099 ft 37 kts 169°
2026-05-09 01:27 46.98394 15.44159 1098 ft 36 kts 169°
2026-05-09 01:27 46.98145 15.44226 1094 ft 36 kts 169°
2026-05-09 01:28 46.97934 15.44286 1092 ft 21 kts 169°
2026-05-09 01:28 46.97845 15.44339 1091 ft 8 kts 139°
2026-05-09 01:28 46.97800 15.44343 1090 ft 6 kts 255°
2026-05-09 01:28 46.97836 15.44311 1091 ft 9 kts 353°
2026-05-09 01:29 46.98053 15.44252 1093 ft 69 kts 349°
2026-05-09 01:29 46.98795 15.44050 1100 ft 144 kts 348°
2026-05-09 01:29 46.99960 15.43743 1435 ft 179 kts 349°
2026-05-09 01:29 47.01069 15.43456 2527 ft 165 kts 348°
2026-05-09 01:30 47.02223 15.43092 3089 ft 175 kts 348°
2026-05-09 01:30 47.03459 15.42721 3576 ft 188 kts 349°
2026-05-09 01:30 47.04716 15.42032 4006 ft 205 kts 324°
2026-05-09 01:30 47.05777 15.40525 4485 ft 221 kts 313°
2026-05-09 01:31 47.06885 15.38863 5026 ft 235 kts 317°
2026-05-09 01:31 47.08137 15.37209 5574 ft 250 kts 319°
2026-05-09 01:31 47.09467 15.35541 6217 ft 261 kts 319°
2026-05-09 01:31 47.10897 15.33754 6846 ft 274 kts 319°
2026-05-09 01:32 47.12353 15.31922 7665 ft 278 kts 319°
2026-05-09 01:32 47.13803 15.30087 8474 ft 282 kts 320°
2026-05-09 01:32 47.15294 15.28194 9306 ft 284 kts 320°
2026-05-09 01:32 47.16777 15.26308 10148 ft 286 kts 320°
2026-05-09 01:33 47.18291 15.24384 10751 ft 297 kts 320°
2026-05-09 01:33 47.19889 15.22352 11232 ft 311 kts 320°
2026-05-09 01:33 47.21579 15.20202 11690 ft 326 kts 320°
2026-05-09 01:33 47.23318 15.17989 12096 ft 342 kts 320°
2026-05-09 01:34 47.25140 15.15666 12724 ft 350 kts 320°
2026-05-09 01:34 47.26998 15.13293 13412 ft 356 kts 319°
2026-05-09 01:34 47.28859 15.10916 14148 ft 360 kts 319°
2026-05-09 01:34 47.30743 15.08483 14873 ft 363 kts 317°
2026-05-09 01:35 47.32573 15.05899 15607 ft 367 kts 315°
2026-05-09 01:35 47.34351 15.03205 16319 ft 370 kts 313°
2026-05-09 01:35 47.36118 15.00461 17000 ft 373 kts 313°
2026-05-09 01:35 47.37896 14.97703 17671 ft 377 kts 313°
2026-05-09 01:36 47.39706 14.94925 18345 ft 380 kts 313°
2026-05-09 01:36 47.41560 14.92105 18982 ft 384 kts 313°
2026-05-09 01:36 47.43421 14.89289 19613 ft 387 kts 313°
2026-05-09 01:36 47.45316 14.86429 20260 ft 390 kts 313°
2026-05-09 01:37 47.47207 14.83576 20842 ft 393 kts 313°
2026-05-09 01:37 47.49121 14.80687 21431 ft 397 kts 313°
2026-05-09 01:37 47.51060 14.77754 22003 ft 400 kts 313°
2026-05-09 01:37 47.53009 14.74805 22584 ft 403 kts 313°
2026-05-09 01:38 47.54968 14.71837 23156 ft 406 kts 313°
2026-05-09 01:38 47.56944 14.68840 23671 ft 409 kts 313°
2026-05-09 01:38 47.58916 14.65846 24194 ft 412 kts 313°
2026-05-09 01:38 47.60932 14.62780 24719 ft 415 kts 313°
2026-05-09 01:39 47.62938 14.59727 25253 ft 418 kts 312°
2026-05-09 01:39 47.64974 14.56622 25753 ft 421 kts 312°
2026-05-09 01:39 47.66994 14.53538 26241 ft 423 kts 312°
2026-05-09 01:39 47.69070 14.50363 26705 ft 426 kts 312°
2026-05-09 01:40 47.71119 14.47225 27176 ft 429 kts 312°
2026-05-09 01:40 47.73207 14.44022 27614 ft 431 kts 312°
2026-05-09 01:40 47.75300 14.40808 28037 ft 434 kts 312°
2026-05-09 01:40 47.77375 14.37620 28483 ft 436 kts 312°
2026-05-09 01:41 47.79521 14.34318 28895 ft 440 kts 311°
2026-05-09 01:41 47.81646 14.31045 29310 ft 442 kts 311°
2026-05-09 01:41 47.83773 14.27764 29693 ft 445 kts 311°
2026-05-09 01:41 47.85952 14.24399 30158 ft 446 kts 311°
2026-05-09 01:42 47.88111 14.21062 30715 ft 444 kts 310°
2026-05-09 01:42 47.90241 14.17766 31255 ft 440 kts 311°
2026-05-09 01:42 47.92368 14.14473 31767 ft 437 kts 311°
2026-05-09 01:42 47.94476 14.11204 32231 ft 434 kts 311°
2026-05-09 01:43 47.96535 14.08005 32634 ft 433 kts 311°
2026-05-09 01:43 47.98642 14.04726 33041 ft 431 kts 311°
2026-05-09 01:43 48.00703 14.01517 33443 ft 428 kts 310°
2026-05-09 01:43 48.02764 13.98301 33792 ft 427 kts 310°
2026-05-09 01:44 48.04797 13.95126 34127 ft 426 kts 311°
2026-05-09 01:44 48.06831 13.91944 34438 ft 424 kts 311°
2026-05-09 01:44 48.08876 13.88742 34653 ft 424 kts 310°
2026-05-09 01:44 48.10918 13.85538 34852 ft 424 kts 311°
2026-05-09 01:45 48.12967 13.82320 35249 ft 424 kts 310°
2026-05-09 01:45 48.14985 13.79148 35480 ft 424 kts 311°
2026-05-09 01:45 48.17021 13.75944 35724 ft 424 kts 310°
2026-05-09 01:45 48.19075 13.72709 35964 ft 424 kts 310°
2026-05-09 01:46 48.21112 13.69495 36083 ft 425 kts 311°
2026-05-09 01:46 48.23131 13.66305 36088 ft 427 kts 311°
2026-05-09 01:46 48.27194 13.59880 36092 ft 424 kts 311°
2026-05-09 01:47 48.31266 13.53424 36088 ft 425 kts 311°
2026-05-09 01:47 48.35324 13.46972 36088 ft 428 kts 311°
2026-05-09 01:48 48.39428 13.40426 36088 ft 432 kts 310°
2026-05-09 01:48 48.43264 13.33557 36089 ft 428 kts 303°
2026-05-09 01:49 48.46388 13.25852 36089 ft 426 kts 296°
2026-05-09 01:49 48.49101 13.17964 36087 ft 426 kts 295°
2026-05-09 01:50 48.51781 13.09975 36084 ft 426 kts 295°
2026-05-09 01:50 48.54458 13.02008 36082 ft 425 kts 295°
2026-05-09 01:51 48.57133 12.94055 36083 ft 427 kts 295°
2026-05-09 01:51 48.59816 12.86082 36085 ft 427 kts 295°
2026-05-09 01:52 48.62516 12.78040 36088 ft 427 kts 295°
2026-05-09 01:52 48.65203 12.70019 36082 ft 426 kts 295°
2026-05-09 01:53 48.67893 12.61962 36088 ft 428 kts 295°
2026-05-09 01:53 48.70566 12.53931 36089 ft 428 kts 295°
2026-05-09 01:54 48.73242 12.45867 36082 ft 428 kts 295°
2026-05-09 01:54 48.75898 12.37832 36089 ft 429 kts 295°
2026-05-09 01:55 48.78605 12.29620 36090 ft 429 kts 294°
2026-05-09 01:55 48.81245 12.21587 36093 ft 429 kts 295°
2026-05-09 01:56 48.83903 12.13472 36092 ft 429 kts 295°
2026-05-09 01:56 48.86539 12.05403 36087 ft 427 kts 295°
2026-05-09 01:57 48.89182 11.97279 36097 ft 431 kts 295°
2026-05-09 01:57 48.91816 11.89162 36089 ft 431 kts 295°
2026-05-09 01:58 48.94471 11.80951 36088 ft 431 kts 295°
2026-05-09 01:58 48.97094 11.72817 36093 ft 431 kts 295°
2026-05-09 01:59 48.99741 11.64576 36089 ft 431 kts 295°
2026-05-09 01:59 49.02365 11.56385 36091 ft 431 kts 295°
2026-05-09 02:00 49.04984 11.48182 36093 ft 431 kts 295°
2026-05-09 02:00 49.07592 11.39984 36092 ft 431 kts 295°
2026-05-09 02:01 49.10202 11.31751 36092 ft 431 kts 294°
2026-05-09 02:01 49.12798 11.23537 36096 ft 432 kts 294°
2026-05-09 02:02 49.15412 11.15242 36092 ft 431 kts 294°
2026-05-09 02:02 49.18018 11.06959 36101 ft 432 kts 295°
2026-05-09 02:03 49.20906 10.98935 36097 ft 433 kts 300°
2026-05-09 02:03 49.24098 10.91131 36097 ft 433 kts 301°
2026-05-09 02:04 49.27320 10.83386 36108 ft 433 kts 301°
2026-05-09 02:04 49.30521 10.75619 36115 ft 434 kts 301°
2026-05-09 02:05 49.33725 10.67772 36115 ft 434 kts 301°
2026-05-09 02:05 49.36909 10.59924 36111 ft 434 kts 301°
2026-05-09 02:06 49.40100 10.52017 36113 ft 434 kts 301°
2026-05-09 02:07 49.44850 10.40195 36109 ft 434 kts 301°
2026-05-09 02:07 49.48011 10.32296 36113 ft 435 kts 300°
2026-05-09 02:08 49.51159 10.24404 36113 ft 434 kts 300°
2026-05-09 02:08 49.54314 10.16473 36113 ft 434 kts 301°
2026-05-09 02:09 49.57476 10.08498 36115 ft 434 kts 301°
2026-05-09 02:09 49.60617 10.00553 36117 ft 435 kts 301°
2026-05-09 02:10 49.63758 9.92585 36116 ft 435 kts 301°
2026-05-09 02:10 49.66897 9.84598 36122 ft 436 kts 301°
2026-05-09 02:11 49.70022 9.76623 36121 ft 435 kts 301°
2026-05-09 02:11 49.73149 9.68618 36116 ft 435 kts 301°
2026-05-09 02:12 49.76268 9.60607 36111 ft 435 kts 301°
2026-05-09 02:12 49.79375 9.52604 36112 ft 437 kts 301°
2026-05-09 02:13 49.82481 9.44579 36113 ft 435 kts 301°
2026-05-09 02:13 49.85591 9.36520 36113 ft 437 kts 301°
2026-05-09 02:14 49.88635 9.28384 36115 ft 436 kts 299°
2026-05-09 02:14 49.91600 9.20037 36118 ft 438 kts 298°
2026-05-09 02:15 49.94513 9.11758 36118 ft 436 kts 299°
2026-05-09 02:15 49.97415 9.03518 36119 ft 436 kts 299°
2026-05-09 02:16 50.00333 8.95238 36133 ft 437 kts 299°
2026-05-09 02:16 50.03244 8.86970 36123 ft 436 kts 299°
2026-05-09 02:17 50.06039 8.78624 36117 ft 437 kts 295°
2026-05-09 02:17 50.08263 8.69924 36121 ft 436 kts 291°
2026-05-09 02:18 50.10302 8.61016 36133 ft 436 kts 291°
2026-05-09 02:18 50.12325 8.52126 36128 ft 436 kts 291°
2026-05-09 02:19 50.14375 8.43224 36125 ft 435 kts 291°
2026-05-09 02:19 50.15388 8.38851 35959 ft 432 kts 292°
2026-05-09 02:19 50.16404 8.34468 36114 ft 434 kts 291°
2026-05-09 02:20 50.18481 8.25515 36120 ft 437 kts 291°
2026-05-09 02:20 50.20536 8.16624 36109 ft 436 kts 291°
2026-05-09 02:21 50.22590 8.07706 36117 ft 437 kts 291°
2026-05-09 02:21 50.24619 7.98860 36111 ft 437 kts 292°
2026-05-09 02:22 50.26662 7.89922 36107 ft 438 kts 291°
2026-05-09 02:22 50.28705 7.80944 36112 ft 438 kts 292°
2026-05-09 02:23 50.30722 7.72045 36111 ft 436 kts 292°
2026-05-09 02:23 50.32738 7.63113 36117 ft 436 kts 291°
2026-05-09 02:24 50.34747 7.54170 36112 ft 435 kts 292°
2026-05-09 02:24 50.36736 7.45276 36106 ft 436 kts 292°
2026-05-09 02:25 50.38734 7.36308 36108 ft 435 kts 292°
2026-05-09 02:25 50.40723 7.27339 36102 ft 434 kts 291°
2026-05-09 02:26 50.42685 7.18457 36108 ft 435 kts 291°
2026-05-09 02:26 50.44665 7.09457 36102 ft 435 kts 291°
2026-05-09 02:27 50.46625 7.00513 36121 ft 435 kts 291°
2026-05-09 02:27 50.48586 6.91517 36114 ft 435 kts 291°
2026-05-09 02:28 50.50527 6.82575 36107 ft 433 kts 292°
2026-05-09 02:28 50.52274 6.73546 36108 ft 436 kts 288°
2026-05-09 02:29 50.53795 6.64334 36110 ft 435 kts 288°
2026-05-09 02:29 50.55289 6.55102 36112 ft 436 kts 288°
2026-05-09 02:30 50.56791 6.45952 36110 ft 435 kts 288°
2026-05-09 02:30 50.58320 6.36721 36110 ft 435 kts 288°
2026-05-09 02:31 50.59859 6.27442 36101 ft 435 kts 288°
2026-05-09 02:31 50.61221 6.18246 36101 ft 437 kts 284°
2026-05-09 02:32 50.62296 6.08844 36107 ft 438 kts 283°
2026-05-09 02:32 50.63316 5.99440 36101 ft 437 kts 283°
2026-05-09 02:33 50.64356 5.90048 36105 ft 436 kts 283°
2026-05-09 02:33 50.65561 5.80728 36105 ft 434 kts 287°
2026-05-09 02:34 50.67178 5.71601 36112 ft 434 kts 289°
2026-05-09 02:34 50.68916 5.62519 36114 ft 433 kts 290°
2026-05-09 02:35 50.70785 5.53462 36114 ft 432 kts 291°
2026-05-09 02:35 50.72654 5.44469 36116 ft 433 kts 291°
2026-05-09 02:36 50.74492 5.35471 36112 ft 432 kts 290°
2026-05-09 02:36 50.76306 5.26450 36114 ft 433 kts 290°
2026-05-09 02:37 50.78113 5.17372 36108 ft 431 kts 289°
2026-05-09 02:37 50.79892 5.08368 36112 ft 432 kts 289°
2026-05-09 02:38 50.81688 4.99185 36111 ft 433 kts 289°
2026-05-09 02:38 50.83418 4.90109 36109 ft 432 kts 289°
2026-05-09 02:39 50.85137 4.81013 36114 ft 433 kts 289°
2026-05-09 02:39 50.86852 4.71910 36112 ft 433 kts 289°
2026-05-09 02:40 50.88569 4.62768 36111 ft 433 kts 289°
2026-05-09 02:40 50.90510 4.53864 36115 ft 432 kts 295°
2026-05-09 02:41 50.93293 4.45409 36119 ft 431 kts 302°
2026-05-09 02:41 50.96392 4.37355 36117 ft 430 kts 303°
2026-05-09 02:42 50.99573 4.29257 36117 ft 431 kts 302°
2026-05-09 02:42 51.02700 4.21203 36118 ft 431 kts 302°
2026-05-09 02:43 51.05838 4.13023 36116 ft 432 kts 302°
2026-05-09 02:43 51.08938 4.04870 36117 ft 433 kts 302°
2026-05-09 02:44 51.12049 3.96644 36116 ft 432 kts 301°
2026-05-09 02:44 51.15140 3.88437 36115 ft 433 kts 301°
2026-05-09 02:45 51.18219 3.80233 36112 ft 432 kts 301°
2026-05-09 02:45 51.21270 3.72008 36116 ft 433 kts 300°
2026-05-09 02:46 51.23752 3.63276 36115 ft 434 kts 289°
2026-05-09 02:46 51.25319 3.54003 36114 ft 436 kts 284°
2026-05-09 02:47 51.26561 3.44551 36113 ft 435 kts 282°
2026-05-09 02:47 51.27748 3.35045 36116 ft 437 kts 282°
2026-05-09 02:48 51.28928 3.25576 36117 ft 437 kts 282°
2026-05-09 02:48 51.30116 3.16117 36115 ft 436 kts 282°
2026-05-09 02:49 51.31307 3.06654 36116 ft 436 kts 282°
2026-05-09 02:49 51.32494 2.97216 36115 ft 435 kts 282°
2026-05-09 02:50 51.33683 2.87703 36115 ft 436 kts 282°
2026-05-09 02:50 51.34865 2.78189 36113 ft 436 kts 281°
2026-05-09 02:51 51.36044 2.68641 36112 ft 437 kts 281°
2026-05-09 02:51 51.37221 2.59079 36110 ft 437 kts 281°
2026-05-09 02:52 51.38384 2.49571 36107 ft 438 kts 281°
2026-05-09 02:52 51.39540 2.40048 36107 ft 437 kts 281°
2026-05-09 02:53 51.40693 2.30486 36104 ft 436 kts 280°
2026-05-09 02:53 51.41835 2.20989 36101 ft 437 kts 280°
2026-05-09 02:54 51.43003 2.11402 36101 ft 438 kts 281°
2026-05-09 02:54 51.44162 2.01881 36100 ft 438 kts 281°
2026-05-09 02:55 51.45311 1.92284 36100 ft 440 kts 280°
2026-05-09 02:55 51.46448 1.82596 36102 ft 439 kts 280°
2026-05-09 02:56 51.47555 1.72999 36102 ft 440 kts 280°
2026-05-09 02:56 51.48658 1.63367 36105 ft 439 kts 279°
2026-05-09 02:57 51.49749 1.53770 36105 ft 439 kts 279°
2026-05-09 02:57 51.50839 1.44123 36109 ft 438 kts 279°
2026-05-09 02:58 51.51916 1.34521 36108 ft 440 kts 278°
2026-05-09 02:58 51.52998 1.24800 36111 ft 439 kts 278°
2026-05-09 02:59 51.54060 1.15190 36108 ft 441 kts 278°
2026-05-09 02:59 51.55129 1.05426 36114 ft 441 kts 278°
2026-05-09 03:00 51.56185 0.95703 36112 ft 443 kts 278°
2026-05-09 03:00 51.57235 0.85959 36112 ft 443 kts 278°
2026-05-09 03:01 51.58276 0.76231 36054 ft 436 kts 278°
2026-05-09 03:01 51.58787 0.71433 35744 ft 429 kts 278°
2026-05-09 03:01 51.59285 0.66729 35249 ft 426 kts 278°
2026-05-09 03:01 51.59780 0.62037 34614 ft 426 kts 278°
2026-05-09 03:02 51.60270 0.57362 33905 ft 428 kts 278°
2026-05-09 03:02 51.60761 0.52656 33172 ft 429 kts 278°
2026-05-09 03:02 51.61254 0.47920 32532 ft 427 kts 278°
2026-05-09 03:02 51.61735 0.43289 32109 ft 421 kts 278°
2026-05-09 03:03 51.62215 0.38665 31629 ft 418 kts 278°
2026-05-09 03:03 51.62688 0.34064 31144 ft 421 kts 277°
2026-05-09 03:03 51.63163 0.29412 30637 ft 421 kts 277°
2026-05-09 03:03 51.63632 0.24817 30130 ft 417 kts 277°
2026-05-09 03:04 51.64136 0.20217 29617 ft 413 kts 278°
2026-05-09 03:04 51.64770 0.15768 29120 ft 410 kts 283°
2026-05-09 03:04 51.65658 0.11432 28634 ft 407 kts 288°
2026-05-09 03:04 51.66707 0.07267 28143 ft 404 kts 290°
2026-05-09 03:05 51.67846 0.03147 27645 ft 400 kts 292°
2026-05-09 03:05 51.69003 -0.00886 27157 ft 397 kts 292°
2026-05-09 03:05 51.70158 -0.04875 26672 ft 393 kts 292°
2026-05-09 03:05 51.71302 -0.08843 26181 ft 389 kts 292°
2026-05-09 03:06 51.72423 -0.12764 25698 ft 387 kts 292°
2026-05-09 03:06 51.73543 -0.16714 25214 ft 390 kts 292°
2026-05-09 03:06 51.74656 -0.20669 24730 ft 389 kts 291°
2026-05-09 03:06 51.75766 -0.24631 24238 ft 386 kts 291°
2026-05-09 03:07 51.76868 -0.28582 23749 ft 382 kts 291°
2026-05-09 03:07 51.77949 -0.32468 23259 ft 379 kts 291°
2026-05-09 03:07 51.79050 -0.36263 22777 ft 376 kts 295°
2026-05-09 03:07 51.80384 -0.39869 22291 ft 375 kts 304°
2026-05-09 03:08 51.82133 -0.42927 22129 ft 370 kts 317°
2026-05-09 03:08 51.84208 -0.45474 22130 ft 377 kts 324°
2026-05-09 03:08 51.86410 -0.47783 22122 ft 380 kts 326°
2026-05-09 03:08 51.88651 -0.49984 22121 ft 379 kts 327°
2026-05-09 03:09 51.90924 -0.52161 22122 ft 378 kts 327°
2026-05-09 03:09 51.93173 -0.54304 22117 ft 379 kts 328°
2026-05-09 03:09 51.95437 -0.56472 22115 ft 378 kts 327°
2026-05-09 03:09 51.97711 -0.58664 22116 ft 378 kts 327°
2026-05-09 03:10 51.99948 -0.60831 22116 ft 378 kts 327°
2026-05-09 03:10 52.02194 -0.63018 22118 ft 378 kts 327°
2026-05-09 03:10 52.04465 -0.65236 22116 ft 379 kts 326°
2026-05-09 03:10 52.06700 -0.67425 22111 ft 378 kts 326°
2026-05-09 03:11 52.08955 -0.69639 21829 ft 376 kts 326°
2026-05-09 03:11 52.11172 -0.71818 21373 ft 373 kts 326°
2026-05-09 03:11 52.13404 -0.74016 20885 ft 370 kts 326°
2026-05-09 03:11 52.15581 -0.76162 20400 ft 367 kts 326°
2026-05-09 03:12 52.17743 -0.78297 19918 ft 364 kts 327°
2026-05-09 03:12 52.19894 -0.80425 19430 ft 361 kts 327°
2026-05-09 03:12 52.22028 -0.82538 18944 ft 359 kts 327°
2026-05-09 03:12 52.24132 -0.84624 18456 ft 355 kts 327°
2026-05-09 03:13 52.28323 -0.88778 17498 ft 350 kts 327°
2026-05-09 03:13 52.30401 -0.90836 17019 ft 347 kts 327°
2026-05-09 03:13 52.32454 -0.92871 16550 ft 345 kts 327°
2026-05-09 03:14 52.34485 -0.94886 16079 ft 343 kts 327°
2026-05-09 03:14 52.36510 -0.96898 15603 ft 340 kts 327°
2026-05-09 03:14 52.38508 -0.98860 15272 ft 333 kts 329°
2026-05-09 03:14 52.40576 -1.00396 15013 ft 325 kts 342°
2026-05-09 03:15 52.42778 -1.00781 14763 ft 319 kts
2026-05-09 03:15 52.44922 -1.00024 14502 ft 312 kts 15°
2026-05-09 03:15 52.46996 -0.99012 14064 ft 312 kts 16°
2026-05-09 03:15 52.49052 -0.97991 13596 ft 312 kts 16°
2026-05-09 03:16 52.51131 -0.97010 13144 ft 311 kts 15°
2026-05-09 03:16 52.53180 -0.96087 12970 ft 301 kts 15°
2026-05-09 03:16 52.55170 -0.95211 12865 ft 289 kts 14°
2026-05-09 03:16 52.57080 -0.94374 12734 ft 280 kts 14°
2026-05-09 03:17 52.58953 -0.93695 12486 ft 275 kts
2026-05-09 03:17 52.60812 -0.94278 12065 ft 275 kts 330°
2026-05-09 03:17 52.62236 -0.96211 11771 ft 263 kts 306°
2026-05-09 03:17 52.63141 -0.98811 11434 ft 261 kts 290°
2026-05-09 03:18 52.63609 -1.01653 11086 ft 259 kts 272°
2026-05-09 03:18 52.63351 -1.04498 10801 ft 252 kts 245°
2026-05-09 03:18 52.62369 -1.06817 10416 ft 251 kts 217°
2026-05-09 03:18 52.60815 -1.08117 9949 ft 254 kts 193°
2026-05-09 03:19 52.59069 -1.08404 9621 ft 252 kts 177°
2026-05-09 03:19 52.57328 -1.08161 9298 ft 250 kts 173°
2026-05-09 03:19 52.55627 -1.07840 9021 ft 248 kts 173°
2026-05-09 03:19 52.53910 -1.07531 8716 ft 249 kts 172°
2026-05-09 03:20 52.52233 -1.06949 8395 ft 248 kts 158°
2026-05-09 03:20 52.50854 -1.05355 8132 ft 244 kts 127°
2026-05-09 03:20 52.50136 -1.02886 8125 ft 240 kts 105°
2026-05-09 03:20 52.49912 -1.00160 8108 ft 243 kts 89°
2026-05-09 03:21 52.50331 -0.97472 8117 ft 247 kts 60°
2026-05-09 03:21 52.51468 -0.95422 8121 ft 250 kts 36°
2026-05-09 03:21 52.53023 -0.94138 8115 ft 252 kts 18°
2026-05-09 03:21 52.54757 -0.93888 8110 ft 253 kts 349°
2026-05-09 03:22 52.56357 -0.95020 8119 ft 254 kts 322°
2026-05-09 03:22 52.57580 -0.97094 8110 ft 254 kts 303°
2026-05-09 03:22 52.58516 -0.99547 8109 ft 253 kts 306°
2026-05-09 03:22 52.59836 -1.01441 8100 ft 254 kts 333°
2026-05-09 03:23 52.61517 -1.02458 7676 ft 262 kts 346°
2026-05-09 03:23 52.63288 -1.03154 7306 ft 263 kts 347°
2026-05-09 03:23 52.65046 -1.03841 7071 ft 258 kts 349°
2026-05-09 03:23 52.66848 -1.04228 6522 ft 267 kts 359°
2026-05-09 03:24 52.68729 -1.04155 6016 ft 271 kts
2026-05-09 03:24 52.70592 -1.03894 5499 ft 266 kts
2026-05-09 03:24 52.72384 -1.03613 5074 ft 259 kts
2026-05-09 03:24 52.74151 -1.03349 4729 ft 250 kts
2026-05-09 03:25 52.75858 -1.03090 4338 ft 244 kts
2026-05-09 03:25 52.77511 -1.02844 4030 ft 236 kts
2026-05-09 03:25 52.79087 -1.02621 3974 ft 217 kts
2026-05-09 03:25 52.80552 -1.02412 3997 ft 206 kts
2026-05-09 03:26 52.81957 -1.02275 3989 ft 204 kts 355°
2026-05-09 03:26 52.83274 -1.03161 3994 ft 208 kts 318°
2026-05-09 03:26 52.84098 -1.05083 3997 ft 206 kts 288°
2026-05-09 03:26 52.84238 -1.07386 3989 ft 204 kts 261°
2026-05-09 03:27 52.84018 -1.09707 3992 ft 205 kts 259°
2026-05-09 03:27 52.83811 -1.12052 3998 ft 204 kts 261°
2026-05-09 03:27 52.83643 -1.14361 3988 ft 203 kts 262°
2026-05-09 03:27 52.83481 -1.16689 3998 ft 204 kts 262°
2026-05-09 03:28 52.83319 -1.19013 3997 ft 204 kts 262°
2026-05-09 03:28 52.83232 -1.21340 3997 ft 205 kts 267°
2026-05-09 03:28 52.83217 -1.23713 3996 ft 204 kts 268°
2026-05-09 03:28 52.83205 -1.26040 3996 ft 204 kts 267°
2026-05-09 03:29 52.83175 -1.28386 3996 ft 204 kts 267°
2026-05-09 03:29 52.83135 -1.30730 3996 ft 204 kts 267°
2026-05-09 03:29 52.83094 -1.33050 3996 ft 203 kts 267°
2026-05-09 03:29 52.83055 -1.35402 3884 ft 205 kts 267°
2026-05-09 03:30 52.83019 -1.37782 3615 ft 206 kts 267°
2026-05-09 03:30 52.82982 -1.40123 3369 ft 205 kts 267°
2026-05-09 03:30 52.82944 -1.42463 3143 ft 202 kts 267°
2026-05-09 03:30 52.82904 -1.44758 3002 ft 195 kts 265°
2026-05-09 03:31 52.82528 -1.46786 2962 ft 186 kts 230°
2026-05-09 03:31 52.81617 -1.48341 2977 ft 188 kts 222°
2026-05-09 03:31 52.80725 -1.49934 2973 ft 189 kts 228°
2026-05-09 03:31 52.79915 -1.51622 2974 ft 188 kts 230°
2026-05-09 03:32 52.79118 -1.53311 2975 ft 188 kts 230°
2026-05-09 03:32 52.78309 -1.55003 2990 ft 186 kts 229°
2026-05-09 03:32 52.77499 -1.56694 2988 ft 187 kts 231°
2026-05-09 03:32 52.76999 -1.58674 2981 ft 192 kts 266°
2026-05-09 03:33 52.77285 -1.60817 2995 ft 195 kts 297°
2026-05-09 03:33 52.78093 -1.62598 2993 ft 196 kts 318°
2026-05-09 03:33 52.79277 -1.63641 2980 ft 195 kts 352°
2026-05-09 03:33 52.80606 -1.63484 2986 ft 192 kts 20°
2026-05-09 03:34 52.81770 -1.62453 2987 ft 188 kts 45°
2026-05-09 03:34 52.82446 -1.60658 2906 ft 184 kts 80°
2026-05-09 03:34 52.82558 -1.58622 2777 ft 175 kts 90°
2026-05-09 03:34 52.82618 -1.56648 2616 ft 170 kts 89°
2026-05-09 03:35 52.82671 -1.54683 2440 ft 170 kts 91°
2026-05-09 03:35 52.82710 -1.52752 2278 ft 169 kts 91°
2026-05-09 03:35 52.82750 -1.50809 2124 ft 169 kts 91°
2026-05-09 03:35 52.82789 -1.48867 1989 ft 167 kts 91°
2026-05-09 03:36 52.82828 -1.46953 1833 ft 163 kts 91°
2026-05-09 03:36 52.82864 -1.45148 1617 ft 152 kts 91°
2026-05-09 03:36 52.82896 -1.43475 1384 ft 140 kts 91°
2026-05-09 03:36 52.82927 -1.41888 1216 ft 139 kts 91°
2026-05-09 03:37 52.82958 -1.40272 1021 ft 139 kts 91°
2026-05-09 03:37 52.82989 -1.38680 832 ft 139 kts 91°
2026-05-09 03:37 52.83019 -1.37090 646 ft 138 kts 90°
2026-05-09 03:37 52.83049 -1.35512 461 ft 139 kts 90°
2026-05-09 03:38 52.83076 -1.33926 318 ft 133 kts 90°
2026-05-09 03:38 52.83096 -1.32645 297 ft 84 kts 89°
2026-05-09 03:38 52.83110 -1.31878 288 ft 50 kts 88°
2026-05-09 03:38 52.83116 -1.31523 286 ft 26 kts 90°
2026-05-09 03:39 52.83106 -1.31345 287 ft 13 kts 135°
2026-05-09 03:39 52.83022 -1.31308 287 ft 12 kts 177°
2026-05-09 03:39 52.82954 -1.31368 285 ft 13 kts 250°
2026-05-09 03:39 52.82946 -1.31568 282 ft 20 kts 267°
2026-05-09 03:40 52.82912 -1.31687 281 ft 11 kts 203°
2026-05-09 03:40 52.82877 -1.31788 281 ft 13 kts 270°
2026-05-09 03:40 52.82873 -1.31940 281 ft 5 kts 254°
2026-05-09 03:40 52.82836 -1.31966 280 ft 8 kts 183°
2026-05-09 03:41 52.82811 -1.31966 279 ft 2 kts 179°
2026-05-09 03:41 52.82802 -1.31965 279 ft 0 kts 179°